| time (UTC) | temp F | wind direction | speed MPH | gust MPH | rain 1hr in | rain 24hr in | rain mn in | humidity % | barometer mb |
| 20260510230524 | 63 | 51 | 11.0 | 15.0 | 0.80 | 4.26 | 4.26 | 63 | 1019.3 |
| 20260510225520 | 63 | 51 | 11.0 | 14.0 | 0.78 | 4.10 | 4.10 | 62 | 1019.6 |
| 20260510224520 | 62 | 60 | 11.0 | 16.0 | 0.79 | 3.97 | 3.97 | 65 | 1019.9 |
| 20260510223520 | 63 | 66 | 10.0 | 15.0 | 0.82 | 3.87 | 3.87 | 65 | 1020.2 |
| 20260510222520 | 63 | 50 | 11.0 | 15.0 | 0.78 | 3.77 | 3.77 | 65 | 1019.9 |
| 20260510221520 | 63 | 61 | 13.0 | 22.0 | 0.72 | 3.64 | 3.64 | 65 | 1019.8 |
| 20260510220520 | 63 | 62 | 11.0 | 21.0 | 0.63 | 3.47 | 3.47 | 65 | 1019.3 |
| 20260510215540 | 64 | 49 | 12.0 | 16.0 | 0.57 | 3.32 | 3.32 | 65 | 1019.5 |
| 20260510214521 | 65 | 50 | 13.0 | 31.0 | 0.54 | 3.19 | 3.19 | 64 | 1019.1 |
| 20260510213521 | 66 | 50 | 13.0 | 18.0 | 0.59 | 3.06 | 3.06 | 62 | 1019.3 |
| 20260510212521 | 67 | 51 | 14.0 | 22.0 | 0.83 | 3.00 | 3.00 | 60 | 1019.0 |
| 20260510211523 | 69 | 50 | 16.0 | 23.0 | 1.07 | 2.93 | 2.92 | 58 | 1018.5 |
| 20260510210523 | 70 | 57 | 13.0 | 19.0 | 1.30 | 2.84 | 2.83 | 56 | 1017.6 |
| 20260510205518 | 70 | 55 | 12.0 | 19.0 | 1.37 | 2.76 | 2.75 | 56 | 1017.4 |
| 20260510204539 | 70 | 52 | 14.0 | 24.0 | 1.39 | 2.65 | 2.65 | 57 | 1016.3 |
| 20260510203519 | 70 | 53 | 14.0 | 20.0 | 1.31 | 2.47 | 2.47 | 58 | 1015.7 |
| 20260510202518 | 69 | 58 | 14.0 | 24.0 | 1.05 | 2.17 | 2.16 | 60 | 1015.6 |
| 20260510201520 | 66 | 75 | 14.0 | 18.0 | 0.80 | 1.86 | 1.85 | 66 | 1015.4 |
| 20260510200520 | 67 | 66 | 13.0 | 20.0 | 0.55 | 1.54 | 1.53 | 65 | 1017.2 |
| 20260510195519 | 67 | 58 | 12.0 | 19.0 | 0.45 | 1.39 | 1.38 | 63 | 1017.8 |
| 20260510194520 | 65 | 49 | 15.0 | 21.0 | 0.39 | 1.27 | 1.26 | 70 | 1018.3 |
| 20260510193520 | 65 | 43 | 15.0 | 21.0 | 0.40 | 1.16 | 1.16 | 71 | 1018.8 |
| 20260510192520 | 66 | 46 | 13.0 | 21.0 | 0.45 | 1.12 | 1.11 | 69 | 1018.6 |
| 20260510191521 | 67 | 46 | 13.0 | 21.0 | 0.45 | 1.06 | 1.05 | 69 | 1018.4 |
| 20260510190520 | 68 | 39 | 11.0 | 21.0 | 0.50 | 0.99 | 0.98 | 67 | 1017.9 |
| 20260510185522 | 69 | 42 | 11.0 | 20.0 | 0.63 | 0.94 | 0.93 | 64 | 1017.6 |
| 20260510184520 | 71 | 42 | 14.0 | 26.0 | 0.71 | 0.87 | 0.87 | 61 | 1017.1 |
| 20260510183521 | 71 | 53 | 16.0 | 40.0 | 0.76 | 0.76 | 0.76 | 60 | 1016.5 |
| 20260510182521 | 73 | 53 | 14.0 | 23.0 | 0.66 | 0.67 | 0.66 | 58 | 1017.0 |
| 20260510181541 | 75 | 53 | 15.0 | 21.0 | 0.61 | 0.61 | 0.61 | 57 | 1016.2 |
| 20260510180521 | 76 | 56 | 12.0 | 19.0 | 0.48 | 0.49 | 0.48 | 56 | 1015.7 |
| 20260510175527 | 78 | 49 | 12.0 | 15.0 | 0.30 | 0.31 | 0.30 | 51 | 1015.6 |
| 20260510174522 | 79 | 54 | 14.0 | 20.0 | 0.16 | 0.16 | 0.16 | 53 | 1015.2 |
| 20260510173519 | 82 | 56 | 8.0 | 11.0 | 0.00 | 0.01 | 0.00 | 42 | 1015.1 |
| 20260510172518 | 82 | 52 | 7.0 | 11.0 | 0.00 | 0.01 | 0.00 | 41 | 1015.2 |
| 20260510171519 | 82 | 53 | 5.0 | 10.0 | 0.00 | 0.01 | 0.00 | 42 | 1015.3 |
| 20260510170519 | 82 | 69 | 4.0 | 8.0 | 0.00 | 0.01 | 0.00 | 42 | 1014.9 |
| 20260510165519 | 81 | 53 | 6.0 | 10.0 | 0.00 | 0.01 | 0.00 | 43 | 1014.7 |
| 20260510164520 | 81 | 66 | 5.0 | 8.0 | 0.00 | 0.01 | 0.00 | 44 | 1014.6 |
| 20260510163521 | 80 | 58 | 3.0 | 6.0 | 0.00 | 0.01 | 0.00 | 44 | 1014.5 |
| 20260510162521 | 80 | 62 | 4.0 | 6.0 | 0.00 | 0.01 | 0.00 | 46 | 1014.4 |
| 20260510161520 | 79 | 44 | 3.0 | 6.0 | 0.00 | 0.01 | 0.00 | 47 | 1014.3 |
| 20260510160521 | 79 | 95 | 2.0 | 5.0 | 0.00 | 0.01 | 0.00 | 48 | 1014.2 |
| 20260510155524 | 78 | 123 | 1.0 | 4.0 | 0.00 | 0.01 | 0.00 | 48 | 1013.9 |
| 20260510154522 | 78 | 145 | 1.0 | 3.0 | 0.00 | 0.01 | 0.00 | 49 | 1013.8 |
| 20260510153541 | 77 | 169 | 2.0 | 5.0 | 0.00 | 0.01 | 0.00 | 52 | 1013.6 |
| 20260510152523 | 77 | 128 | 2.0 | 6.0 | 0.00 | 0.01 | 0.00 | 51 | 1013.5 |
| 20260510151520 | 76 | 131 | 1.0 | 5.0 | 0.00 | 0.01 | 0.00 | 54 | 1013.5 |
| 20260510150522 | 76 | 104 | 1.0 | 4.0 | 0.00 | 0.01 | 0.00 | 53 | 1013.5 |
| 20260510145521 | 76 | 124 | 1.0 | 5.0 | 0.00 | 0.01 | 0.00 | 54 | 1013.4 |
| 20260510144522 | 75 | 117 | 1.0 | 3.0 | 0.00 | 0.01 | 0.00 | 55 | 1013.3 |
| 20260510143521 | 74 | 168 | 0.0 | 4.0 | 0.00 | 0.01 | 0.00 | 57 | 1013.4 |
| 20260510142525 | 73 | 104 | 2.0 | 4.0 | 0.00 | 0.01 | 0.00 | 58 | 1013.4 |
| 20260510141541 | 72 | 106 | 1.0 | 4.0 | 0.00 | 0.01 | 0.00 | 58 | 1013.0 |
| 20260510140522 | 72 | 88 | 3.0 | 6.0 | 0.00 | 0.01 | 0.00 | 59 | 1012.8 |
| 20260510135521 | 70 | 86 | 4.0 | 6.0 | 0.00 | 0.01 | 0.00 | 59 | 1012.8 |
| 20260510134519 | 69 | 88 | 4.0 | 7.0 | 0.00 | 0.01 | 0.00 | 59 | 1012.8 |
| 20260510133541 | 68 | 68 | 3.0 | 6.0 | 0.00 | 0.01 | 0.00 | 60 | 1013.1 |
| 20260510132520 | 65 | 55 | 4.0 | 7.0 | 0.00 | 0.01 | 0.00 | 62 | 1012.9 |
| 20260510131519 | 64 | 72 | 2.0 | 4.0 | 0.00 | 0.01 | 0.00 | 66 | 1012.5 |
| 20260510130519 | 63 | 66 | 1.0 | 3.0 | 0.00 | 0.01 | 0.00 | 69 | 1012.3 |
| 20260510125519 | 62 | 0 | 0.0 | 0.0 | 0.00 | 0.01 | 0.00 | 69 | 1012.0 |
| 20260510124521 | 63 | 60 | 1.0 | 3.0 | 0.00 | 0.01 | 0.00 | 71 | 1012.0 |
| 20260510123522 | 63 | 0 | 0.0 | 0.0 | 0.00 | 0.01 | 0.00 | 71 | 1011.6 |
| 20260510122520 | 62 | 141 | 0.0 | 2.0 | 0.00 | 0.01 | 0.00 | 72 | 1011.3 |
| 20260510121519 | 62 | 91 | 0.0 | 2.0 | 0.00 | 0.01 | 0.00 | 72 | 1011.2 |
| 20260510120520 | 61 | 126 | 0.0 | 2.0 | 0.00 | 0.01 | 0.00 | 71 | 1010.8 |
| 20260510115520 | 59 | 77 | 1.0 | 4.0 | 0.00 | 0.01 | 0.00 | 73 | 1010.7 |
| 20260510114520 | 59 | 68 | 3.0 | 4.0 | 0.00 | 0.01 | 0.00 | 75 | 1010.5 |
| 20260510113522 | 62 | 0 | 0.0 | 0.0 | 0.00 | 0.01 | 0.00 | 69 | 1010.1 |
| 20260510112525 | 63 | 208 | 1.0 | 3.0 | 0.00 | 0.01 | 0.00 | 69 | 1010.0 |
| 20260510111602 | 63 | 230 | 4.0 | 9.0 | 0.00 | 0.01 | 0.00 | 69 | 1010.0 |
| 20260510110540 | 63 | 230 | 4.0 | 6.0 | 0.00 | 0.01 | 0.00 | 68 | 1009.9 |
| 20260510105519 | 63 | 238 | 7.0 | 10.0 | 0.00 | 0.01 | 0.00 | 67 | 1010.0 |
| 20260510104519 | 63 | 238 | 8.0 | 12.0 | 0.00 | 0.01 | 0.00 | 67 | 1010.1 |
| 20260510103539 | 62 | 233 | 5.0 | 8.0 | 0.00 | 0.01 | 0.00 | 66 | 1009.9 |
| 20260510102519 | 63 | 208 | 2.0 | 4.0 | 0.00 | 0.01 | 0.00 | 65 | 1009.6 |
| 20260510101519 | 63 | 211 | 1.0 | 5.0 | 0.00 | 0.01 | 0.00 | 64 | 1009.6 |
| 20260510100520 | 64 | 208 | 1.0 | 4.0 | 0.00 | 0.01 | 0.00 | 63 | 1009.5 |
| 20260510095559 | 63 | 203 | 2.0 | 5.0 | 0.00 | 0.01 | 0.00 | 63 | 1009.6 |
| 20260510094522 | 64 | 234 | 0.0 | 2.0 | 0.00 | 0.01 | 0.00 | 61 | 1009.6 |
| 20260510093522 | 65 | 230 | 2.0 | 6.0 | 0.00 | 0.01 | 0.00 | 60 | 1009.5 |
| 20260510092520 | 65 | 232 | 2.0 | 7.0 | 0.00 | 0.01 | 0.00 | 58 | 1009.5 |
| 20260510091519 | 67 | 229 | 4.0 | 9.0 | 0.00 | 0.01 | 0.00 | 56 | 1009.6 |
| 20260510090520 | 68 | 234 | 4.0 | 6.0 | 0.00 | 0.01 | 0.00 | 54 | 1009.6 |
| 20260510085520 | 67 | 236 | 3.0 | 5.0 | 0.00 | 0.01 | 0.00 | 53 | 1009.6 |
| 20260510084520 | 67 | 235 | 3.0 | 6.0 | 0.00 | 0.01 | 0.00 | 54 | 1009.6 |
| 20260510083521 | 67 | 231 | 1.0 | 3.0 | 0.00 | 0.01 | 0.00 | 53 | 1009.5 |
| 20260510082538 | 67 | 233 | 1.0 | 5.0 | 0.00 | 0.01 | 0.00 | 52 | 1009.4 |
| 20260510081519 | 68 | 228 | 1.0 | 3.0 | 0.00 | 0.01 | 0.00 | 51 | 1009.2 |
| 20260510080519 | 69 | 237 | 2.0 | 4.0 | 0.00 | 0.01 | 0.00 | 49 | 1009.1 |
| 20260510075519 | 70 | 233 | 2.0 | 4.0 | 0.00 | 0.01 | 0.00 | 48 | 1009.2 |
| 20260510074540 | 70 | 233 | 2.0 | 5.0 | 0.00 | 0.01 | 0.00 | 47 | 1009.3 |
| 20260510073518 | 71 | 230 | 2.0 | 8.0 | 0.00 | 0.01 | 0.00 | 45 | 1009.3 |
| 20260510072520 | 71 | 224 | 4.0 | 6.0 | 0.00 | 0.01 | 0.00 | 44 | 1009.4 |
| 20260510071521 | 72 | 223 | 4.0 | 6.0 | 0.00 | 0.01 | 0.00 | 43 | 1009.3 |
| 20260510070519 | 72 | 232 | 6.0 | 13.0 | 0.00 | 0.01 | 0.00 | 42 | 1009.2 |
| 20260510065520 | 72 | 227 | 3.0 | 10.0 | 0.00 | 0.01 | 0.00 | 41 | 1009.2 |
| 20260510064620 | 72 | 225 | 4.0 | 13.0 | 0.00 | 0.01 | 0.00 | 40 | 1009.3 |
| 20260510063519 | 72 | 215 | 3.0 | 10.0 | 0.00 | 0.01 | 0.00 | 39 | 1009.3 |
| 20260510062519 | 72 | 213 | 3.0 | 13.0 | 0.00 | 0.01 | 0.00 | 39 | 1009.3 |
| 20260510061519 | 72 | 207 | 3.0 | 10.0 | 0.00 | 0.01 | 0.00 | 38 | 1009.3 |
| 20260510060520 | 72 | 205 | 2.0 | 7.0 | 0.00 | 0.01 | 0.00 | 38 | 1009.3 |
| 20260510055520 | 72 | 215 | 2.0 | 10.0 | 0.00 | 0.01 | 0.00 | 37 | 1009.3 |
| 20260510054520 | 72 | 196 | 2.0 | 9.0 | 0.00 | 0.01 | 0.00 | 36 | 1009.3 |
| 20260510053520 | 72 | 224 | 2.0 | 8.0 | 0.00 | 0.01 | 0.00 | 36 | 1009.3 |
| 20260510052520 | 72 | 203 | 2.0 | 5.0 | 0.00 | 0.01 | 0.00 | 35 | 1009.2 |
| 20260510051543 | 73 | 208 | 2.0 | 10.0 | 0.00 | 0.01 | 0.00 | 34 | 1009.2 |
| 20260510050521 | 73 | 201 | 2.0 | 6.0 | 0.00 | 0.01 | 0.00 | 33 | 1009.2 |
| 20260510045521 | 73 | 200 | 2.0 | 5.0 | 0.00 | 0.01 | 0.01 | 33 | 1009.2 |
| 20260510044521 | 73 | 207 | 3.0 | 8.0 | 0.00 | 0.01 | 0.01 | 31 | 1009.1 |
| 20260510043518 | 73 | 210 | 4.0 | 9.0 | 0.00 | 0.01 | 0.01 | 30 | 1009.2 |
| 20260510042518 | 73 | 204 | 4.0 | 8.0 | 0.00 | 0.01 | 0.01 | 30 | 1009.2 |
| 20260510041520 | 73 | 208 | 4.0 | 11.0 | 0.00 | 0.01 | 0.01 | 28 | 1009.2 |
| 20260510040519 | 74 | 209 | 4.0 | 12.0 | 0.00 | 0.01 | 0.01 | 27 | 1009.1 |
| 20260510035604 | 74 | 207 | 3.0 | 6.0 | 0.00 | 0.01 | 0.01 | 26 | 1009.1 |
| 20260510034519 | 73 | 221 | 4.0 | 6.0 | 0.00 | 0.01 | 0.01 | 25 | 1009.0 |
| 20260510033519 | 73 | 202 | 1.0 | 6.0 | 0.00 | 0.01 | 0.01 | 25 | 1008.9 |
| 20260510032519 | 73 | 207 | 1.0 | 4.0 | 0.00 | 0.01 | 0.01 | 25 | 1008.8 |
| 20260510031540 | 74 | 209 | 3.0 | 6.0 | 0.00 | 0.01 | 0.01 | 24 | 1008.7 |
| 20260510030520 | 75 | 198 | 3.0 | 6.0 | 0.00 | 0.01 | 0.01 | 22 | 1008.7 |
| 20260510025520 | 76 | 202 | 3.0 | 5.0 | 0.00 | 0.01 | 0.01 | 21 | 1008.6 |
| 20260510024521 | 77 | 202 | 3.0 | 6.0 | 0.00 | 0.01 | 0.01 | 20 | 1008.5 |
| 20260510023521 | 78 | 194 | 3.0 | 4.0 | 0.00 | 0.01 | 0.01 | 19 | 1008.4 |
| 20260510022521 | 79 | 189 | 0.0 | 2.0 | 0.00 | 0.01 | 0.01 | 18 | 1008.3 |
| 20260510021521 | 80 | 226 | 0.0 | 3.0 | 0.00 | 0.01 | 0.01 | 17 | 1008.2 |
| 20260510020528 | 81 | 230 | 1.0 | 4.0 | 0.00 | 0.01 | 0.01 | 16 | 1008.0 |
| 20260510015522 | 82 | 231 | 2.0 | 5.0 | 0.00 | 0.01 | 0.01 | 16 | 1007.8 |
| 20260510014521 | 84 | 232 | 1.0 | 2.0 | 0.00 | 0.01 | 0.01 | 16 | 1007.8 |
| 20260510013522 | 86 | 229 | 5.0 | 7.0 | 0.00 | 0.01 | 0.01 | 15 | 1007.7 |
| 20260510012522 | 88 | 232 | 6.0 | 10.0 | 0.00 | 0.01 | 0.01 | 14 | 1007.6 |
| 20260510011519 | 89 | 233 | 5.0 | 7.0 | 0.00 | 0.01 | 0.01 | 13 | 1007.5 |
| 20260510010519 | 91 | 240 | 6.0 | 9.0 | 0.00 | 0.01 | 0.01 | 12 | 1007.6 |
| 20260510005519 | 92 | 247 | 7.0 | 11.0 | 0.00 | 0.01 | 0.01 | 12 | 1007.5 |
| 20260510004519 | 92 | 244 | 7.0 | 11.0 | 0.00 | 0.01 | 0.01 | 12 | 1007.5 |
| 20260510003519 | 92 | 238 | 7.0 | 11.0 | 0.00 | 0.01 | 0.01 | 11 | 1007.5 |
| 20260510002545 | 93 | 248 | 7.0 | 11.0 | 0.00 | 0.01 | 0.01 | 11 | 1007.5 |
| 20260510001519 | 93 | 241 | 6.0 | 12.0 | 0.00 | 0.01 | 0.01 | 11 | 1007.6 |
| 20260510000520 | 94 | 235 | 7.0 | 13.0 | 0.00 | 0.01 | 0.01 | 11 | 1007.6 |
| 20260509235519 | 94 | 243 | 8.0 | 13.0 | 0.00 | 0.01 | 0.01 | 11 | 1007.8 |
| 20260509234540 | 94 | 242 | 5.0 | 9.0 | 0.00 | 0.01 | 0.01 | 11 | 1007.8 |
| 20260509233520 | 94 | 237 | 7.0 | 10.0 | 0.00 | 0.01 | 0.01 | 11 | 1007.8 |
| 20260509232520 | 94 | 271 | 6.0 | 10.0 | 0.00 | 0.01 | 0.01 | 11 | 1007.9 |
| 20260509231521 | 94 | 264 | 6.0 | 10.0 | 0.00 | 0.01 | 0.01 | 11 | 1007.9 |